"Timestamp","TZ","WindDir_Mean (deg)","WindSpd_Mean (km/h)","WindSpd_Min (km/h)","WindSpd_Max (km/h)","Temp_Mean (deg)","RH_Mean (%)","MSLP_Mean (hPa)","Rain_Acc (mm)","Rain_Intensity (mm/h)","Hail_Acc (hits/cm2)","Hail_Intensity (hits/cm2hr)","Solar_Mean (W/m2)"
2022/01/01 00:00:00.006,n,141,6.12,5.04,7.2,22.4,75.1,1012.82,0,0,0,0,0.042648
2022/01/01 00:01:00.000,n,110,1.44,0.72,1.8,22.4,75.6,1012.82,0,0,0,0,0.042648
2022/01/01 00:02:00.000,n,139,6.84,5.04,10.440002,22.3,75.5,1012.82,0,0,0,0,0.040054
2022/01/01 00:03:00.000,n,106,0.72,0.36,1.44,22.3,75.8,1012.82,0,0,0,0,0.044403
2022/01/01 00:04:00.000,n,145,4.68,2.88,5.4,22.3,76.1,1012.82,0,0,0,0,0.039177
2022/01/01 00:05:00.000,n,142,5.76,5.4,5.76,22.3,76,1012.82,0,0,0,0,0.039177
2022/01/01 00:06:00.035,n,123,7.92,7.2,9,22.2,75.7,1012.82,0,0,0,0,0.037422
2022/01/01 00:07:00.003,n,158,10.08,9,10.8,22.2,75.2,1012.82,0,0,0,0,0.0383
2022/01/01 00:08:00.001,n,145,5.4,3.24,6.12,22.2,75.5,1012.82,0,0,0,0,0.039177
2022/01/01 00:09:00.014,n,140,10.08,7.92,11.16,22.2,74.9,1012.72,0,0,0,0,0.0383
2022/01/01 00:10:00.000,n,143,7.92,7.2,9,22.3,74.9,1012.72,0,0,0,0,0.037422
2022/01/01 00:11:00.014,n,132,12.6,11.16,14.04,22.3,74.4,1012.72,0,0,0,0,0.039177
2022/01/01 00:12:00.006,n,163,16.56,12.24,20.16,22.3,74.2,1012.72,0,0,0,0,0.039177
2022/01/01 00:13:00.000,n,120,8.28,7.56,10.08,22.4,74.2,1012.72,0,0,0,0,0.0383
2022/01/01 00:14:00.000,n,142,8.28,6.84,9,22.4,73.9,1012.72,0,0,0,0,0.033112
2022/01/01 00:15:00.000,n,113,9.36,7.92,10.8,22.4,73.8,1012.72,0,0,0,0,0.035706
2022/01/01 00:16:00.050,n,119,9.36,8.64,11.16,22.4,74,1012.72,0,0,0,0,0.034828
2022/01/01 00:17:00.007,n,138,6.48,6.12,6.84,22.4,73.9,1012.72,0,0,0,0,0.036545
2022/01/01 00:18:00.006,n,131,9,8.64,9.36,22.4,73.9,1012.62,0,0,0,0,0.036545
2022/01/01 00:19:00.002,n,127,7.92,7.2,8.28,22.4,73.9,1012.62,0,0,0,0,0.032196
2022/01/01 00:20:00.000,n,104,2.52,2.16,2.88,22.4,74,1012.62,0,0,0,0,0.032196
2022/01/01 00:21:00.000,n,136,4.32,1.44,6.48,22.4,73.9,1012.62,0,0,0,0,0.034828
2022/01/01 00:22:00.000,n,155,7.92,3.24,11.88,22.4,73.9,1012.62,0,0,0,0,0.032196
2022/01/01 00:23:00.006,n,128,4.32,3.96,4.68,22.4,74.1,1012.62,0,0,0,0,0.031319
2022/01/01 00:24:00.006,n,132,8.64,7.56,10.08,22.4,73.6,1012.62,0,0,0,0,0.031319
2022/01/01 00:25:00.000,n,136,6.48,6.12,6.84,22.4,73.7,1012.62,0,0,0,0,0.033112
2022/01/01 00:26:00.011,n,155,6.84,4.68,10.08,22.4,73.7,1012.72,0,0,0,0,0.034828
2022/01/01 00:27:00.010,n,170,5.04,2.88,8.64,22.4,73.8,1012.72,0,0,0,0,0.034828
2022/01/01 00:28:00.000,n,140,3.96,3.96,4.68,22.4,73.9,1012.72,0,0,0,0,0.032196
2022/01/01 00:29:00.001,n,123,1.8,1.44,2.16,22.4,74.2,1012.72,0,0,0,0,0.031319
2022/01/01 00:30:00.000,n,137,5.76,4.68,6.48,22.4,73.8,1012.62,0,0,0,0,0.028725
2022/01/01 00:31:00.000,n,128,6.48,6.12,6.84,22.4,73.9,1012.62,0,0,0,0,0.031319
2022/01/01 00:32:00.000,n,152,5.4,3.96,9.72,22.4,73.9,1012.62,0,0,0,0,0.033951
2022/01/01 00:33:00.009,n,117,3.96,3.6,4.68,22.4,73.9,1012.62,0,0,0,0,0.033112
2022/01/01 00:34:00.007,n,133,4.32,3.96,4.68,22.4,74,1012.62,0,0,0,0,0.030479
2022/01/01 00:35:00.003,n,140,3.6,2.16,7.56,22.4,74,1012.52,0,0,0,0,0.033951
2022/01/01 00:36:00.000,n,148,8.28,6.84,12.96,22.4,73.8,1012.52,0,0,0,0,0.033112
2022/01/01 00:37:00.002,n,123,5.04,3.96,6.84,22.4,74.1,1012.52,0,0,0,0,0.037422
2022/01/01 00:38:00.000,n,119,2.52,1.8,3.24,22.4,74.1,1012.42,0,0,0,0,0.032196
2022/01/01 00:39:00.000,n,145,3.96,2.52,5.04,22.4,74,1012.42,0,0,0,0,0.033951
2022/01/01 00:40:00.000,n,144,7.92,5.4,12.24,22.4,74.1,1012.42,0,0,0,0,0.033112
2022/01/01 00:41:00.000,n,115,3.24,2.88,3.6,22.4,74.1,1012.42,0,0,0,0,0.034828
2022/01/01 00:42:00.005,n,141,6.12,5.76,6.84,22.4,73.9,1012.42,0,0,0,0,0.032196
2022/01/01 00:43:00.001,n,118,4.32,2.16,5.76,22.4,74.1,1012.42,0,0,0,0,0.033112
2022/01/01 00:44:00.000,n,135,10.440002,8.28,11.52,22.4,73.8,1012.42,0,0,0,0,0.034828
2022/01/01 00:45:00.014,n,103,7.56,6.84,9,22.4,73.7,1012.42,0,0,0,0,0.040054
2022/01/01 00:46:00.000,n,129,6.12,5.4,6.48,22.4,73.7,1012.32,0,0,0,0,0.035706
2022/01/01 00:47:00.001,n,148,6.48,6.12,6.84,22.4,73.8,1012.32,0,0,0,0,0.037422
2022/01/01 00:48:00.000,n,125,6.48,5.76,6.84,22.4,73.6,1012.32,0,0,0,0,0.033112
2022/01/01 00:49:00.003,n,135,5.4,5.04,5.76,22.4,73.7,1012.32,0,0,0,0,0.033951
2022/01/01 00:50:00.001,n,148,7.2,4.32,10.440002,22.4,73.9,1012.32,0,0,0,0,0.035706
2022/01/01 00:51:00.000,n,171,3.24,1.8,7.56,22.4,73.9,1012.32,0,0,0,0,0.035706
2022/01/01 00:52:00.006,n,163,5.4,3.24,9.72,22.4,74.2,1012.22,0,0,0,0,0.033112
2022/01/01 00:53:00.004,n,159,8.64,5.04,10.08,22.4,74.4,1012.22,0,0,0,0,0.037422
2022/01/01 00:54:00.002,n,144,6.12,5.76,6.48,22.4,74.4,1012.22,0,0,0,0,0.037422
2022/01/01 00:55:00.000,n,143,2.88,2.88,3.24,22.4,74.6,1012.22,0,0,0,0,0.039177
2022/01/01 00:56:00.000,n,159,9.72,5.04,11.16,22.4,74.7,1012.12,0,0,0,0,0.039177
2022/01/01 00:57:00.056,n,131,4.68,3.6,5.76,22.4,74.6,1012.12,0,0,0,0,0.040054
2022/01/01 00:58:00.006,n,143,6.48,6.12,6.84,22.4,74.5,1012.12,0,0,0,0,0.0383
2022/01/01 00:59:00.005,n,140,5.04,4.68,5.76,22.3,74.5,1012.12,0,0,0,0,0.034828
2022/01/01 01:00:00.003,n,116,5.76,4.32,6.48,22.3,74.5,1012.02,0,0,0,0,0.0383
2022/01/01 01:01:00.034,n,124,5.76,5.04,6.12,22.3,74.5,1012.02,0,0,0,0,0.040894
2022/01/01 01:02:00.000,n,87,3.96,3.24,4.68,22.3,74.6,1012.02,0,0,0,0,0.040894
2022/01/01 01:03:00.013,n,129,3.6,3.24,4.32,22.3,74.6,1012.02,0,0,0,0,0.040054
2022/01/01 01:04:00.000,n,129,9.72,9,10.8,22.3,74.4,1012.02,0,0,0,0,0.039177
2022/01/01 01:05:00.000,n,144,8.28,7.56,9,22.3,74.2,1012.02,0,0,0,0,0.041771
2022/01/01 01:06:00.000,n,132,5.04,3.96,6.12,22.3,74.3,1012.02,0,0,0,0,0.0383
2022/01/01 01:07:00.008,n,155,2.52,1.8,7.56,22.3,74.6,1012.02,0,0,0,0,0.040054
2022/01/01 01:08:00.000,n,167,6.12,3.6,9.36,22.3,74.5,1011.92,0,0,0,0,0.040054
2022/01/01 01:09:00.006,n,140,1.8,0.72,2.52,22.3,74.7,1012.02,0,0,0,0,0.039177
2022/01/01 01:10:00.004,n,137,4.68,3.24,5.04,22.3,74.6,1012.02,0,0,0,0,0.036545
2022/01/01 01:11:00.001,n,132,1.44,1.08,1.8,22.3,74.8,1012.02,0,0,0,0,0.040054
2022/01/01 01:12:00.016,n,50,1.08,0.72,1.44,22.3,74.9,1012.02,0,0,0,0,0.039177
2022/01/01 01:13:00.009,n,118,3.24,2.88,3.96,22.3,74.7,1012.02,0,0,0,0,0.0383
2022/01/01 01:14:00.000,n,130,1.8,0.72,2.16,22.3,74.8,1012.02,0,0,0,0,0.036545
2022/01/01 01:15:00.000,n,150,2.88,1.08,4.32,22.3,74.7,1012.02,0,0,0,0,0.0383
2022/01/01 01:16:00.000,n,163,3.6,2.16,4.32,22.3,74.8,1012.02,0,0,0,0,0.040054
2022/01/01 01:17:00.008,n,172,2.16,1.8,2.52,22.3,75,1012.02,0,0,0,0,0.037422
2022/01/01 01:18:00.005,n,137,4.32,3.24,9,22.3,74.8,1012.02,0,0,0,0,0.0383
2022/01/01 01:19:00.006,n,150,2.52,1.08,2.88,22.3,75.1,1011.92,0,0,0,0,0.040894
2022/01/01 01:20:00.003,n,163,3.6,1.8,7.92,22.3,75,1011.92,0,0,0,0,0.039177
2022/01/01 01:21:00.004,n,145,3.6,2.88,4.32,22.3,74.9,1011.92,0,0,0,0,0.040054
2022/01/01 01:22:00.000,n,161,9.72,6.48,13.68,22.3,74.8,1011.92,0,0,0,0,0.0383
2022/01/01 01:23:00.000,n,180,4.32,3.6,6.12,22.3,74.8,1011.82,0,0,0,0,0.040054
2022/01/01 01:24:00.002,n,153,6.48,5.4,10.440002,22.3,75,1011.82,0,0,0,0,0.039177
2022/01/01 01:25:00.001,n,138,6.48,4.68,8.64,22.3,74.9,1011.72,0,0,0,0,0.036545
2022/01/01 01:26:00.001,n,194,3.24,2.88,3.6,22.3,74.8,1011.72,0,0,0,0,0.037422
2022/01/01 01:27:00.000,n,169,2.88,2.52,3.6,22.3,74.6,1011.72,0,0,0,0,0.037422
2022/01/01 01:28:00.000,n,143,7.56,7.2,7.92,22.3,74.7,1011.72,0,0,0,0,0.041771
2022/01/01 01:29:00.010,n,144,8.28,7.2,8.64,22.3,74.5,1011.72,0,0,0,0,0.041771
2022/01/01 01:30:00.012,n,159,9.36,6.12,12.6,22.3,74.4,1011.72,0,0,0,0,0.040054
2022/01/01 01:31:00.000,n,151,7.92,5.4,12.24,22.3,74.4,1011.72,0,0,0,0,0.0383
2022/01/01 01:32:00.000,n,168,6.48,4.32,11.16,22.3,74.2,1011.72,0,0,0,0,0.040054
2022/01/01 01:33:00.000,n,156,7.56,6.12,11.52,22.3,74.3,1011.72,0,0,0,0,0.039177
2022/01/01 01:34:00.005,n,160,7.2,3.96,10.08,22.4,74.3,1011.72,0,0,0,0,0.040894
2022/01/01 01:35:00.003,n,147,5.4,5.04,6.12,22.4,74.3,1011.72,0,0,0,0,0.040054
2022/01/01 01:36:00.010,n,158,11.88,6.48,13.68,22.4,74.1,1011.62,0,0,0,0,0.0383
2022/01/01 01:37:00.000,n,161,3.96,3.24,4.32,22.4,74.3,1011.62,0,0,0,0,0.037422
2022/01/01 01:38:00.010,n,162,5.04,2.16,8.64,22.4,74.5,1011.62,0,0,0,0,0.037422
2022/01/01 01:39:00.006,n,157,6.12,4.32,9.36,22.4,74.3,1011.62,0,0,0,0,0.040054
2022/01/01 01:40:00.000,n,160,9.36,7.56,13.32,22.4,74.2,1011.62,0,0,0,0,0.044403
2022/01/01 01:41:00.003,n,171,4.68,3.96,9,22.4,74.2,1011.62,0,0,0,0,0.039177
2022/01/01 01:42:00.005,n,155,11.16,8.28,14.76,22.4,74.3,1011.62,0,0,0,0,0.043526
2022/01/01 01:43:00.002,n,150,5.76,5.04,6.48,22.4,74.4,1011.52,0,0,0,0,0.040894
2022/01/01 01:44:00.001,n,163,7.56,3.24,10.440002,22.4,74.7,1011.52,0,0,0,0,0.040054
2022/01/01 01:45:00.002,n,146,5.76,5.4,6.12,22.4,74.7,1011.52,0,0,0,0,0.039177
2022/01/01 01:46:00.000,n,158,6.84,3.96,9.36,22.3,74.8,1011.52,0,0,0,0,0.039177
2022/01/01 01:47:00.014,n,161,7.56,3.96,9.36,22.3,74.8,1011.52,0,0,0,0,0.040894
2022/01/01 01:48:00.004,n,147,5.76,2.88,7.56,22.3,74.8,1011.52,0,0,0,0,0.040054
2022/01/01 01:49:00.001,n,203,5.76,4.68,7.92,22.3,74.9,1011.52,0,0,0,0,0.036545
2022/01/01 01:50:00.000,n,168,1.08,0.36,2.16,22.3,74.9,1011.52,0,0,0,0,0.0383
2022/01/01 01:51:00.000,n,147,9,7.92,12.6,22.3,74.7,1011.52,0,0,0,0,0.039177
2022/01/01 01:52:00.007,n,192,6.12,4.68,9,22.3,74.6,1011.52,0,0,0,0,0.0383
2022/01/01 01:53:00.000,n,176,7.2,5.4,11.16,22.3,74.7,1011.42,0,0,0,0,0.042648
2022/01/01 01:54:00.006,n,174,5.04,3.6,9.72,22.3,74.6,1011.42,0,0,0,0,0.039177
2022/01/01 01:55:00.003,n,161,10.08,6.12,12.6,22.3,74.3,1011.42,0,0,0,0,0.040054
2022/01/01 01:56:00.001,n,145,3.96,1.44,6.12,22.4,74.3,1011.42,0,0,0,0,0.042648
2022/01/01 01:57:00.015,n,132,6.12,5.04,7.56,22.4,74.4,1011.42,0,0,0,0,0.040894
2022/01/01 01:58:00.000,n,135,6.84,5.76,7.92,22.4,74.2,1011.42,0,0,0,0,0.041771
2022/01/01 01:59:00.000,n,137,4.32,2.88,8.28,22.4,74.3,1011.42,0,0,0,0,0.041771
2022/01/01 02:00:00.003,n,152,7.92,5.04,11.16,22.4,74.4,1011.42,0,0,0,0,0.040894
2022/01/01 02:01:00.001,n,158,6.12,4.68,9.36,22.4,74.5,1011.42,0,0.3,0,0,0.0383
2022/01/01 02:02:00.000,n,166,9.72,7.2,13.32,22.4,74.6,1011.32,0.01,0.3,0,0,0.040894
2022/01/01 02:03:00.008,n,170,4.32,2.88,8.64,22.4,74.8,1011.32,0.01,0.1,0,0,0.041771
2022/01/01 02:04:00.007,n,180,11.16,7.92,15.12,22.4,74.8,1011.32,0.02,0.3,0,0,0.040054
2022/01/01 02:05:00.001,n,156,11.16,7.56,14.4,22.4,74.9,1011.42,0.02,0,0,0,0.041771
2022/01/01 02:06:00.016,n,190,5.04,4.68,5.76,22.4,74.9,1011.42,0.02,0,0,0,0.039177
2022/01/01 02:07:00.000,n,189,5.76,4.32,10.8,22.4,74.9,1011.42,0.02,0,0,0,0.040054
2022/01/01 02:08:00.000,n,140,4.68,3.6,5.04,22.4,75,1011.42,0.02,0,0,0,0.042648
2022/01/01 02:09:00.000,n,87,1.44,0.72,2.52,22.4,75.5,1011.52,0.02,0,0,0,0.042648
2022/01/01 02:10:00.004,n,179,7.2,4.32,11.16,22.4,75.3,1011.52,0.02,0,0,0,0.040894
2022/01/01 02:11:00.002,n,168,3.96,3.24,4.32,22.3,75.5,1011.52,0.02,0,0,0,0.037422
2022/01/01 02:12:00.000,n,113,3.96,3.24,5.04,22.3,75.7,1011.52,0.02,0,0,0,0.041771
2022/01/01 02:13:00.000,n,158,6.12,3.24,11.88,22.3,75.7,1011.52,0.02,0,0,0,0.039177
2022/01/01 02:14:00.014,n,156,7.92,7.2,13.68,22.3,75.7,1011.52,0.02,0,0,0,0.037422
2022/01/01 02:15:00.014,n,151,7.2,5.76,11.52,22.3,75.7,1011.52,0.02,0,0,0,0.039177
2022/01/01 02:16:00.000,n,157,7.92,5.76,11.88,22.3,75.9,1011.52,0.02,0,0,0,0.040054
2022/01/01 02:17:00.000,n,146,6.12,5.76,6.48,22.3,75.9,1011.52,0.02,0,0,0,0.039177
2022/01/01 02:18:00.000,n,206,2.88,1.44,3.96,22.3,76.2,1011.52,0.02,0,0,0,0.0383
2022/01/01 02:19:00.000,n,173,6.48,3.6,10.440002,22.2,76.1,1011.52,0.03,0.4,0,0,0.036545
2022/01/01 02:20:00.007,n,179,3.96,2.88,8.28,22.2,76.3,1011.52,0.03,0,0,0,0.037422
2022/01/01 02:21:00.012,n,176,3.6,2.88,7.92,22.2,76.5,1011.52,0.03,0,0,0,0.041771
2022/01/01 02:22:00.008,n,152,7.2,5.04,10.440002,22.2,76.3,1011.52,0.03,0,0,0,0.037422
2022/01/01 02:23:00.010,n,144,6.12,5.04,7.2,22.2,76.5,1011.52,0.03,0,0,0,0.035706
2022/01/01 02:24:00.007,n,137,7.2,6.48,7.92,22.2,76.4,1011.52,0.04,0.1,0,0,0.035706
2022/01/01 02:25:00.000,n,102,5.4,5.04,5.76,22.2,76.7,1011.62,0.16,5.2,0,0,0.033951
2022/01/01 02:26:00.004,n,133,3.96,3.24,4.68,22.2,77,1011.62,0.27,7.6,0,0,0.036545
2022/01/01 02:27:00.000,n,131,0.72,0.36,1.08,22.1,77.4,1011.52,0.3,2.9,0,0,0.037422
2022/01/01 02:28:00.000,n,131,4.68,4.68,5.04,22.1,77.7,1011.52,0.32,1.4,0,0,0.035706
2022/01/01 02:29:00.007,n,145,6.12,5.4,7.2,22.1,77.7,1011.52,0.34,0.8,0,0,0.036545
2022/01/01 02:30:00.005,n,150,7.2,6.12,7.56,22,78.1,1011.52,0.34,0.2,0,0,0.031319
2022/01/01 02:31:00.003,n,200,3.6,2.52,4.68,22,78.6,1011.52,0.35,0.6,0,0,0.036545
2022/01/01 02:32:00.001,n,165,6.12,3.96,10.08,21.9,79.2,1011.52,0.35,0.3,0,0,0.033951
2022/01/01 02:33:00.016,n,158,5.4,2.16,9.72,21.9,79.1,1011.52,0.36,0.3,0,0,0.033112
2022/01/01 02:34:00.000,n,182,8.64,7.56,9,21.9,79.4,1011.42,0.36,0.2,0,0,0.035706
2022/01/01 02:35:00.000,n,213,5.04,3.96,7.2,21.8,79.5,1011.42,0.37,0,0,0,0.037422
2022/01/01 02:36:00.009,n,212,2.88,2.52,3.6,21.8,79.9,1011.42,0.37,0.5,0,0,0.031319
2022/01/01 02:37:00.007,n,174,8.64,2.52,11.52,21.8,79.7,1011.42,0.37,0,0,0,0.033112
2022/01/01 02:38:00.007,n,162,9,7.92,13.68,21.7,80,1011.42,0.38,0,0,0,0.030479
2022/01/01 02:39:00.005,n,139,10.08,9,11.16,21.7,80.1,1011.42,0.38,0.4,0,0,0.031319
2022/01/01 02:40:00.005,n,158,9.72,7.92,13.32,21.7,80.3,1011.42,0.38,0,0,0,0.034828
2022/01/01 02:41:00.000,n,130,8.28,6.84,9,21.7,80.5,1011.42,0.38,0,0,0,0.029602
2022/01/01 02:42:00.016,n,123,5.4,4.68,6.84,21.6,80.6,1011.42,0.38,0,0,0,0.027885
2022/01/01 02:43:00.000,n,132,3.96,3.6,4.32,21.6,80.8,1011.42,0.38,0,0,0,0.030479
2022/01/01 02:44:00.000,n,157,6.12,5.4,7.56,21.6,80.8,1011.32,0.38,0,0,0,0.028725
2022/01/01 02:45:00.004,n,146,4.68,3.96,6.12,21.6,81,1011.32,0.38,0,0,0,0.027885
2022/01/01 02:46:00.001,n,174,5.76,5.04,6.84,21.6,81.2,1011.32,0.38,0,0,0,0.02697
2022/01/01 02:47:00.033,n,159,9,7.2,10.440002,21.6,81.3,1011.32,0.38,0,0,0,0.027885
2022/01/01 02:48:00.005,n,161,7.92,7.2,9,21.5,81.3,1011.32,0.39,0.2,0,0,0.023537
2022/01/01 02:49:00.000,n,173,2.88,2.52,3.24,21.5,81.7,1011.32,0.39,0.1,0,0,0.026131
2022/01/01 02:50:00.014,n,155,5.76,5.4,6.12,21.5,81.5,1011.42,0.39,0.1,0,0,0.025253
2022/01/01 02:51:00.013,n,194,5.76,4.68,7.92,21.5,81.6,1011.32,0.39,0,0,0,0.025253
2022/01/01 02:52:00.000,n,186,2.16,1.08,3.96,21.5,81.8,1011.32,0.39,0,0,0,0.022659
2022/01/01 02:53:00.000,n,189,4.68,4.32,5.04,21.5,81.7,1011.32,0.4,0.4,0,0,0.024376
2022/01/01 02:54:00.005,n,161,5.04,3.96,5.76,21.5,81.8,1011.32,0.4,0.1,0,0,0.020905
2022/01/01 02:55:00.002,n,181,7.2,5.76,8.28,21.5,81.8,1011.32,0.41,0.4,0,0,0.022659
2022/01/01 02:56:00.000,n,173,9,7.92,13.32,21.5,81.7,1011.42,0.41,0.1,0,0,0.022659
2022/01/01 02:57:00.000,n,185,8.64,7.2,12.6,21.5,81.7,1011.42,0.41,0,0,0,0.024376
2022/01/01 02:58:00.000,n,181,9.36,7.92,12.6,21.5,81.7,1011.52,0.45,2.1,0,0,0.020905
2022/01/01 02:59:00.012,n,183,6.12,5.4,6.84,21.5,81.7,1011.52,0.45,0,0,0,0.025253
2022/01/01 03:00:00.002,n,174,11.52,8.64,14.4,21.5,81.6,1011.52,0.45,0,0,0,0.026131
2022/01/01 03:01:00.000,n,170,5.76,5.04,6.12,21.5,81.6,1011.62,0.45,0,0,0,0.027008
2022/01/01 03:02:00.000,n,165,3.96,3.6,4.68,21.5,81.6,1011.62,0.45,0,0,0,0.026131
2022/01/01 03:03:00.000,n,250,3.24,2.52,5.04,21.5,81.7,1011.62,0.46,0.6,0,0,0.027008
2022/01/01 03:04:00.000,n,226,3.6,3.24,3.6,21.5,81.7,1011.62,0.46,0,0,0,0.027008
2022/01/01 03:05:00.000,n,176,3.24,2.16,7.2,21.5,81.6,1011.62,0.46,0,0,0,0.024376
2022/01/01 03:06:00.005,n,230,3.96,3.24,4.68,21.5,81.8,1011.62,0.46,0,0,0,0.027008
2022/01/01 03:07:00.004,n,230,3.24,2.16,3.24,21.5,81.9,1011.62,0.46,0,0,0,0.027885
2022/01/01 03:08:00.002,n,258,5.4,4.32,6.84,21.5,81.9,1011.62,0.49,1.7,0,0,0.027008
2022/01/01 03:09:00.016,n,281,3.24,2.16,3.6,21.5,81.9,1011.62,0.49,0,0,0,0.025253
2022/01/01 03:10:00.000,n,216,2.52,2.16,2.88,21.5,82,1011.62,0.49,0,0,0,0.024376
2022/01/01 03:11:00.000,n,262,1.8,1.44,2.16,21.5,82.1,1011.62,0.49,0,0,0,0.021782
2022/01/01 03:12:00.000,n,268,2.52,2.52,2.88,21.5,82.1,1011.62,0.49,0,0,0,0.025253
2022/01/01 03:13:00.000,n,234,3.24,2.52,3.96,21.5,82.1,1011.62,0.49,0,0,0,0.025253
2022/01/01 03:14:00.009,n,224,4.68,4.32,5.04,21.5,82.3,1011.52,0.49,0,0,0,0.023499
2022/01/01 03:15:00.005,n,180,1.44,0.72,1.8,21.5,82.4,1011.52,0.49,0,0,0,0.022659
2022/01/01 03:16:00.000,n,227,3.6,2.52,5.4,21.5,82.5,1011.52,0.49,0,0,0,0.021782
2022/01/01 03:17:00.012,n,235,2.52,2.52,2.88,21.5,82.6,1011.52,0.49,0,0,0,0.024376
2022/01/01 03:18:00.009,n,258,1.8,1.44,2.16,21.5,82.7,1011.52,0.49,0,0,0,0.023499
2022/01/01 03:19:00.000,n,198,2.88,2.52,3.96,21.5,82.7,1011.62,0.49,0,0,0,0.020027
2022/01/01 03:20:00.000,n,219,3.96,3.24,5.04,21.5,82.7,1011.62,0.49,0,0,0,0.024376
2022/01/01 03:21:00.007,n,253,3.6,2.52,4.68,21.4,82.8,1011.72,0.49,0,0,0,0.020905
2022/01/01 03:22:00.007,n,258,6.12,5.76,6.48,21.4,82.8,1011.72,0.49,0,0,0,0.022659
2022/01/01 03:23:00.005,n,286,6.84,6.12,7.2,21.4,82.9,1011.72,0.49,0,0,0,0.023499
2022/01/01 03:24:00.002,n,262,8.28,7.2,9.72,21.4,82.8,1011.72,0.49,0,0,0,0.01915
2022/01/01 03:25:00.000,n,252,2.52,1.44,2.88,21.4,82.7,1011.82,0.49,0,0,0,0.020905
2022/01/01 03:26:00.002,n,271,5.76,4.68,6.48,21.3,82.6,1011.82,0.49,0,0,0,0.025253
2022/01/01 03:27:00.018,n,210,4.68,3.96,5.76,21.3,82.8,1011.82,0.49,0,0,0,0.020905
2022/01/01 03:28:00.000,n,265,1.44,0.36,2.88,21.3,83.1,1011.72,0.49,0,0,0,0.017433
2022/01/01 03:29:00.000,n,189,2.16,0.36,2.52,21.3,83.1,1011.72,0.49,0,0,0,0.021782
2022/01/01 03:30:00.004,n,304,3.24,2.16,4.68,21.3,83,1011.72,0.49,0,0,0,0.020905
2022/01/01 03:31:00.004,n,177,3.96,0.36,6.48,21.2,82.8,1011.62,0.49,0,0,0,0.01915
2022/01/01 03:32:00.000,n,203,1.8,1.44,2.88,21.2,82.8,1011.62,0.49,0,0,0,0.01915
2022/01/01 03:33:00.006,n,173,1.44,0,3.24,21.1,82.7,1011.62,0.49,0,0,0,0.01915
2022/01/01 03:34:00.003,n,249,3.6,2.88,3.6,21.1,82.8,1011.72,0.49,0,0,0,0.024376
2022/01/01 03:35:00.000,n,179,11.52,8.64,16.2,21,82.6,1011.72,0.49,0,0,0,0.020905
2022/01/01 03:36:00.015,n,260,6.48,5.76,7.56,21,82.8,1011.72,0.49,0,0,0,0.021782
2022/01/01 03:37:00.000,n,261,2.52,1.8,3.24,21,82.8,1011.72,0.49,0,0,0,0.020905
2022/01/01 03:38:00.011,n,257,5.76,5.4,6.48,21,82.9,1011.72,0.49,0,0,0,0.018311
2022/01/01 03:39:00.000,n,163,2.16,1.8,2.52,21,83.3,1011.72,0.49,0,0,0,0.023499
2022/01/01 03:40:00.000,n,240,1.8,0.72,3.24,21,83.1,1011.72,0.49,0,0,0,0.028725
2022/01/01 03:41:00.006,n,156,8.28,5.04,12.6,21,82.7,1011.72,0.49,0,0,0,0.024376
2022/01/01 03:42:00.003,n,183,5.76,4.68,10.08,20.9,82.8,1011.72,0.49,0,0,0,0.026131
2022/01/01 03:43:00.000,n,83,3.24,2.16,3.6,20.9,82.9,1011.72,0.49,0,0,0,0.031319
2022/01/01 03:44:00.013,n,132,0.36,0.36,1.08,20.9,83.1,1011.72,0.49,0,0,0,0.025253
2022/01/01 03:45:00.000,n,224,1.08,0.72,1.8,20.9,83.2,1011.72,0.49,0,0,0,0.029602
2022/01/01 03:46:00.000,n,164,7.56,6.48,12.24,20.9,83.1,1011.72,0.49,0,0,0,0.028725
2022/01/01 03:47:00.000,n,184,2.88,1.8,4.32,20.9,83.1,1011.72,0.49,0,0,0,0.026131
2022/01/01 03:48:00.000,n,184,2.16,1.8,2.52,20.9,83.2,1011.72,0.49,0,0,0,0.026131
2022/01/01 03:49:00.005,n,161,2.52,0.36,3.96,20.9,83.5,1011.72,0.49,0,0,0,0.025253
2022/01/01 03:50:00.003,n,184,1.44,0.36,2.88,20.9,83.3,1011.72,0.49,0,0,0,0.023499
2022/01/01 03:51:00.000,n,235,1.08,0.36,1.44,20.9,83.5,1011.72,0.49,0,0,0,0.027847
2022/01/01 03:52:00.009,n,54,0.36,0.36,0.72,20.9,83.6,1011.72,0.49,0,0,0,0.026131
2022/01/01 03:53:00.005,n,168,4.32,2.88,5.4,20.9,83.4,1011.72,0.49,0,0,0,0.025253
2022/01/01 03:54:00.002,n,165,1.44,0.72,1.8,20.9,83.4,1011.72,0.49,0,0,0,0.028725
2022/01/01 03:55:00.016,n,179,6.84,5.4,9,20.9,83.4,1011.72,0.49,0,0,0,0.024376
2022/01/01 03:56:00.000,n,104,2.16,1.08,4.32,20.9,83.5,1011.72,0.49,0,0,0,0.027847
2022/01/01 03:57:00.000,n,137,9,7.56,10.440002,20.9,83.5,1011.72,0.49,0,0,0,0.023499
2022/01/01 03:58:00.000,n,209,4.32,3.6,5.04,20.9,83.5,1011.72,0.49,0,0,0,0.025253
2022/01/01 03:59:00.010,n,168,10.440002,6.84,14.04,20.9,83.6,1011.72,0.49,0,0,0,0.025253
2022/01/01 04:00:00.006,n,183,7.92,5.4,9.72,20.9,83.6,1011.72,0.49,0,0,0,0.026131
2022/01/01 04:01:00.009,n,177,5.4,4.32,6.48,20.9,83.3,1011.82,0.49,0,0,0,0.02697
2022/01/01 04:02:00.002,n,143,8.64,8.28,9.72,20.9,83.5,1011.82,0.49,0,0,0,0.02697
2022/01/01 04:03:00.016,n,181,5.04,4.32,5.76,20.9,83.5,1011.82,0.49,0,0,0,0.024376
2022/01/01 04:04:00.000,n,198,2.16,1.8,3.24,20.9,83.6,1011.92,0.49,0,0,0,0.025253
2022/01/01 04:05:00.000,n,135,3.24,2.52,4.32,20.9,83.5,1011.92,0.49,0,0,0,0.024376
2022/01/01 04:06:00.000,n,189,5.4,2.16,7.56,20.9,83.4,1011.92,0.49,0,0,0,0.021744
2022/01/01 04:07:00.004,n,143,7.92,6.84,8.64,20.9,83.3,1011.92,0.49,0,0,0,0.026131
2022/01/01 04:08:00.006,n,163,4.32,1.8,10.8,20.8,83.3,1011.92,0.49,0,0,0,0.020905
2022/01/01 04:09:00.003,n,201,4.68,4.32,5.4,20.8,83.3,1011.82,0.49,0,0,0,0.024376
2022/01/01 04:10:00.001,n,168,10.440002,7.92,15.48,20.8,83.3,1011.82,0.49,0,0,0,0.025253
2022/01/01 04:11:00.000,n,161,10.440002,7.2,13.32,20.8,83.2,1011.82,0.49,0,0,0,0.024376
2022/01/01 04:12:00.025,n,186,10.08,7.56,12.96,20.8,83.2,1011.72,0.49,0,0,0,0.024376
2022/01/01 04:13:00.000,n,164,4.32,1.08,6.12,20.8,83.2,1011.72,0.49,0,0,0,0.024376
2022/01/01 04:14:00.000,n,176,11.88,7.92,15.48,20.9,83.3,1011.72,0.49,0,0,0,0.021744
2022/01/01 04:15:00.004,n,201,5.4,4.32,7.56,20.9,83.3,1011.72,0.49,0,0,0,0.023499
2022/01/01 04:16:00.008,n,204,6.84,6.12,7.56,20.9,83.4,1011.72,0.49,0,0,0,0.021744
2022/01/01 04:17:00.002,n,151,5.04,3.96,6.12,20.9,83.3,1011.72,0.49,0,0,0,0.025253
2022/01/01 04:18:00.013,n,131,5.76,1.08,7.92,20.9,83.3,1011.72,0.49,0,0,0,0.020905
2022/01/01 04:19:00.002,n,136,4.32,3.96,4.68,20.9,83.4,1011.72,0.49,0,0,0,0.023499
2022/01/01 04:20:00.010,n,146,3.24,2.88,3.6,20.9,83.5,1011.72,0.49,0,0,0,0.021744
2022/01/01 04:21:00.008,n,159,6.12,5.4,6.48,20.9,83.3,1011.72,0.49,0,0,0,0.023499
2022/01/01 04:22:00.000,n,159,13.68,9,15.12,20.9,83.3,1011.72,0.49,0,0,0,0.023499
2022/01/01 04:23:00.003,n,141,11.52,9.72,12.24,20.9,83.3,1011.72,0.49,0,0,0,0.026131
2022/01/01 04:24:00.001,n,143,6.12,4.68,7.2,20.9,83.4,1011.82,0.49,0,0,0,0.026131
2022/01/01 04:25:00.008,n,175,8.28,7.2,10.440002,20.9,83.5,1011.82,0.49,0,0,0,0.030479
2022/01/01 04:26:00.000,n,191,7.56,6.84,8.28,20.9,83.5,1011.82,0.49,0,0,0,0.031319
2022/01/01 04:27:00.001,n,154,9,6.48,14.76,20.9,83.6,1011.82,0.49,0,0,0,0.035667
2022/01/01 04:28:00.000,n,164,15.12,14.04,16.2,20.9,83.5,1011.92,0.49,0,0,0,0.037384
2022/01/01 04:29:00.013,n,206,5.04,3.96,5.76,20.9,83.6,1011.92,0.49,0,0,0,0.041771
2022/01/01 04:30:00.011,n,172,6.84,4.32,8.64,20.9,83.6,1011.92,0.49,0,0,0,0.040894
2022/01/01 04:31:00.000,n,177,14.4,10.08,16.919998,20.9,83.6,1012.02,0.49,0,0,0,0.040894
2022/01/01 04:32:00.000,n,194,2.88,2.16,2.88,20.9,83.6,1012.02,0.49,0,0,0,0.044403
2022/01/01 04:33:00.000,n,212,7.2,6.48,7.56,20.9,83.5,1012.02,0.49,0,0,0,0.044403
2022/01/01 04:34:00.000,n,198,1.8,0,3.6,20.9,83.5,1012.12,0.49,0,0,0,0.052185
2022/01/01 04:35:00.000,n,206,5.4,3.96,5.76,20.9,83.6,1012.12,0.49,0,0,0,0.057411
2022/01/01 04:36:00.011,n,194,9.36,7.92,11.52,20.9,83.5,1012.12,0.49,0,0,0,0.06176
2022/01/01 04:37:00.004,n,184,7.56,6.84,8.64,20.9,83.5,1012.22,0.49,0,0,0,0.065269
2022/01/01 04:38:00.004,n,181,10.8,8.64,13.32,20.9,83.5,1012.22,0.49,0,0,0,0.07309
2022/01/01 04:39:00.002,n,195,7.56,6.84,8.28,20.9,83.4,1012.22,0.49,0,0,0,0.079193
2022/01/01 04:40:00.000,n,171,8.64,6.48,12.6,20.9,83.4,1012.22,0.49,0,0,0,0.093079
2022/01/01 04:41:00.000,n,147,2.88,1.8,3.6,20.9,83.5,1012.22,0.49,0,0,0,0.112267
2022/01/01 04:42:00.003,n,191,8.28,6.84,9.36,21,83.6,1012.22,0.49,0,0,0,0.127907
2022/01/01 04:43:00.000,n,188,4.32,2.88,5.76,21,83.6,1012.22,0.49,0,0,0,0.148773
2022/01/01 04:44:00.000,n,171,9,6.12,11.88,21,83.6,1012.22,0.49,0,0,0,0.175743
2022/01/01 04:45:00.011,n,202,7.92,7.2,9.36,21,83.5,1012.22,0.49,0,0,0,0.197487
2022/01/01 04:46:00.007,n,196,9.36,8.64,11.52,21,83.5,1012.22,0.49,0,0,0,0.223541
2022/01/01 04:47:00.000,n,187,9.36,7.2,13.32,21,83.5,1012.22,0.49,0,0,0,0.252228